Find Kosmos-646

NORAD ID: 7270 Int'l Des: 1974-024 Owner: GUKOSR Country: SU operational
LEOCIRCULAR

Live-Position

3D-Globus wird geladen...

Über Kosmos-646

Beschreibung wird geladen...

Nächste Überflüge

Passes for default location (London). Set your location on the main map for personalized predictions.

Höhenverlauf

Loading altitude history...

Zweizeiliger Elementsatz

1 7270U 74024F 26106.88621029 .00000019 00000-0 21599-3 0 9993
2 7270 74.0163 152.9324 0051244 148.3789 24.2443 12.55026805381499
Epoch: 16. Apr. 2026 • Age: 9 hours

Aktueller Status

Höhe 1412.9 km
Geschwindigkeit 7.18 km/s
Subsatellitenpunkt 48.83°N, 8.97°E
Typ other

Most Searched